[[{"header":{"parameterUnit":"m.s-1","parameterCategory":1,"la1":30.2991,"la2":30.254,"lo1":-89.0895,"lo2":-89.0444,"dy":0.0017,"dx":0.0017,"nx":28,"ny":28,"refTime":"2025-04-02T09:00:00:Z","depth":0,"parameterNumber":2,"parameterNumberName":"U-component_of_WINDS"},"data":[0,0,0,0,0,0,0,0,0,0,0,0,0,0,0,0,0,0,0,0,0,0,0,0,0,0,0,0,0,0,0,0,0,0,0,0,0,0,0,0,0,0,0,0,0,0,0,0,0,0,0,0,0,0,0,0,0,0,-3.1703,-3.1705,0,-3.1829,-3.183,-3.1832,-3.1867,-3.1866,-3.1866,-3.1865,-3.1995,-3.1999,-3.2003,0,0,0,0,0,0,0,0,0,0,0,0,0,-3.1496,-3.1499,-3.1703,-3.1705,-3.1706,-3.1829,-3.183,-3.1832,-3.1867,-3.1866,-3.1865,-3.1865,-3.1994,-3.1998,-3.2003,0,0,0,0,0,0,0,0,0,0,0,0,0,-3.16,-3.15,-3.1703,-3.1738,-3.1743,-3.1828,-3.183,-3.1833,-3.1867,-3.1866,-3.1865,-3.1864,-3.1992,-3.1998,-3.2004,-3.2063,0,0,-3.2023,-3.2026,0,0,0,0,0,0,0,0,-3.1594,-3.1608,-3.1732,-3.1736,-3.1741,-3.1831,-3.1805,-3.191,-3.1868,-3.182,-3.1865,-3.1864,-3.1941,-3.1952,-3.1978,-3.2069,-3.2075,-3.2023,-3.2027,-3.203,-3.2032,0,0,0,0,0,0,0,-3.1587,-3.1602,-3.1753,-3.1733,-3.1739,-3.1749,-3.1763,-3.1825,-3.1885,-3.1824,-3.1827,-3.1841,-3.1944,-3.1972,-3.1981,-3.2077,-3.2023,-3.2029,-3.2033,-3.2035,-3.2225,-3.2226,0,0,0,0,0,0,-3.1573,-3.1596,-3.1749,-3.1757,-3.1664,-3.1753,-3.1769,-3.1803,-3.1885,-3.1896,-3.1842,-3.1843,-3.1961,-3.1974,-3.1986,-3.206,-3.203,-3.2036,-3.2039,-3.2223,-3.2225,-3.2226,0,0,0,0,0,0,-3.1569,-3.1586,-3.1744,-3.1677,-3.1698,-3.1758,-3.1797,-3.1806,-3.1834,-3.1898,-3.1909,-3.1859,-3.1961,-3.1977,-3.2044,-3.2065,-3.2038,-3.2044,-3.2222,-3.2224,-3.2226,-3.221,0,0,0,0,0,0,-3.1562,-3.1585,-3.1607,-3.1677,-3.1701,-3.1799,-3.1798,-3.181,-3.1845,-3.1846,-3.1917,-3.1928,-3.1962,-3.2034,-3.205,-3.2073,-3.2049,-3.222,-3.2223,-3.2225,-3.2209,-3.2211,-3.2213,0,0,0,0,0,-3.1555,-3.1598,-3.1608,-3.1626,-3.1731,-3.18,-3.1814,-3.1852,-3.1846,-3.187,-3.1911,-3.1926,-3.2061,-3.2041,-3.2059,-3.2084,-3.2219,-3.2222,-3.2225,-3.2208,-3.2211,-3.2213,0,0,0,0,0,0,-3.1529,-3.1608,-3.162,-3.1687,-3.1737,-3.1806,-3.1837,-3.1853,-3.1906,-3.1905,-3.195,-3.1966,-3.203,-3.2064,-3.2041,-3.2146,-3.214,-3.2147,-3.2121,-3.2125,-3.2127,-3.2117,-3.2054,0,0,0,0,0,-3.1531,-3.158,-3.1647,-3.17,-3.1724,-3.1776,-3.1808,-3.1832,-3.1886,-3.1907,-3.1953,-3.2005,-3.206,-3.2094,-3.2148,-3.2215,-3.2231,-3.2241,-3.2243,-3.2245,-3.225,-3.2288,-3.2293,-3.2236,-3.2236,-3.2236,0,0,-3.1535,-3.1585,-3.1613,-3.1696,-3.1737,-3.1788,-3.1793,-3.1847,-3.1885,-3.1916,-3.1981,-3.2017,-3.2078,-3.2145,-3.2177,-3.2176,-3.2269,-3.2249,-3.2249,-3.2254,-3.2292,-3.2297,-3.2302,-3.2238,-3.2238,-3.2237,0,0,-3.1569,-3.1612,-3.166,-3.1702,-3.1764,-3.1799,-3.1811,-3.1878,-3.1903,-3.197,-3.1994,-3.2041,-3.2133,-3.2175,-3.2209,-3.2261,-3.2276,-3.2277,-3.2288,-3.2325,-3.2329,-3.2334,-3.2352,-3.2358,-3.2282,-3.2282,-3.2282,0,-3.1567,-3.1644,-3.1683,-3.1735,-3.1771,-3.1801,-3.1851,-3.189,-3.1967,-3.1991,-3.1989,-3.2105,-3.2149,-3.2226,-3.2239,-3.2265,-3.228,-3.2268,-3.2325,-3.233,-3.2335,-3.2352,-3.2359,-3.2282,-3.2282,-3.2282,-3.2282,0,-3.1638,-3.1691,-3.1723,-3.1796,-3.1836,-3.1886,-3.1934,-3.1969,-3.1991,-3.2026,-3.2094,-3.2147,-3.2212,-3.2233,-3.2255,-3.2314,-3.2311,-3.2316,-3.2311,-3.2339,-3.2356,-3.2364,-3.2281,-3.2281,-3.2281,-3.2281,0,0,-3.1658,-3.1753,-3.1764,-3.1797,-3.1869,-3.1911,-3.1964,-3.2027,-3.2056,-3.2109,-3.2154,-3.2233,-3.2238,-3.2277,-3.2304,-3.2336,-3.2373,-3.2338,-3.234,-3.2342,-3.2442,-3.2436,-3.2444,-3.2385,-3.2386,-3.2387,-3.2437,0,-3.17,-3.1794,-3.1832,-3.1909,-3.1958,-3.1988,-3.2034,-3.2084,-3.2118,-3.2166,-3.2205,-3.2259,-3.2263,-3.2286,-3.232,-3.2361,-3.2394,-3.2359,-3.2427,-3.2429,-3.241,-3.2453,-3.2447,-3.2491,-3.2444,-3.2445,-3.2446,0,-3.1762,-3.1815,-3.1896,-3.1962,-3.1985,-3.2025,-3.2086,-3.2131,-3.2189,-3.2212,-3.2255,-3.228,-3.2337,-3.2329,-3.2408,-3.2384,-3.2414,-3.244,-3.2442,-3.2449,-3.2438,-3.246,-3.2506,-3.2512,-3.2457,-3.2456,-3.2455,0,-3.1768,-3.1859,-3.192,-3.1948,-3.2027,-3.2054,-3.2089,-3.2145,-3.2181,-3.2235,-3.2258,-3.2318,-3.2351,-3.2397,-3.2439,-3.2429,-3.2514,-3.251,-3.2535,-3.2534,-3.2551,-3.2549,-3.2601,-3.2572,-3.2572,-3.2572,-3.2572,0,-3.1811,-3.1859,-3.1923,-3.196,-3.2016,-3.2059,-3.2113,-3.215,-3.22,-3.2245,-3.2275,-3.2317,-3.237,-3.2419,-3.2452,-3.2513,-3.2528,-3.2548,-3.2556,-3.2545,-3.2542,-3.2565,-3.2562,-3.2574,-3.2573,-3.2573,-3.2573,0,-3.1826,-3.1871,-3.1938,-3.2008,-3.2026,-3.2064,-3.2124,-3.2162,-3.2198,-3.2255,-3.2271,-3.2328,-3.2388,-3.2434,-3.2511,-3.2534,-3.2598,-3.2607,-3.2578,-3.2582,-3.2605,-3.2602,-3.2673,-3.2684,-3.2647,-3.2648,-3.2648,0,-3.185,-3.1888,-3.1961,-3.1993,-3.2027,-3.2079,-3.2115,-3.216,-3.2197,-3.2266,-3.2295,-3.2356,-3.2408,-3.2502,-3.2551,-3.261,-3.2621,-3.2641,-3.263,-3.2617,-3.262,-3.2617,-3.2621,-3.2642,-3.2643,-3.2643,-3.2643,0,-3.1888,-3.1908,-3.1959,-3.2018,-3.2061,-3.211,-3.2159,-3.2184,-3.2238,-3.2279,-3.2339,-3.2379,-3.2458,-3.2519,-3.2584,-3.262,-3.2641,-3.2646,-3.2655,-3.2644,-3.2625,-3.2635,-3.2581,-3.2644,-3.2644,-3.2644,-3.2644,-3.2644,-3.1908,-3.1943,-3.2,-3.2056,-3.2098,-3.2144,-3.2182,-3.2224,-3.2275,-3.2342,-3.2366,-3.2429,-3.2486,-3.2575,-3.2612,-3.2662,-3.2663,-3.2676,-3.268,-3.2682,-3.268,-3.2618,-3.2674,-3.2674,-3.2674,-3.2674,-3.2675,0,-3.1947,-3.1985,-3.2036,-3.2104,-3.2149,-3.2164,-3.222,-3.2256,-3.2311,-3.2362,-3.2412,-3.2482,-3.2542,-3.2596,-3.2658,-3.2687,-3.2698,-3.2702,-3.27,-3.2708,-3.2676,-3.2662,-3.2692,-3.2692,-3.2692,-3.2692,-3.2692,-3.2692,-3.1972,-3.2032,-3.2059,-3.2141,-3.2179,-3.224,-3.2271,-3.2314,-3.2355,-3.2432,-3.2481,-3.2515,-3.2568,-3.2635,-3.269,-3.2705,-3.2726,-3.2727,-3.2744,-3.2713,-3.271,-3.2708,-3.2695,-3.2731,-3.2731,-3.2771,-3.2772,-3.2772]},{"header":{"parameterUnit":"m.s-1","parameterCategory":1,"la1":30.2991,"la2":30.254,"lo1":-89.0895,"lo2":-89.0444,"dy":0.0017,"dx":0.0017,"nx":28,"ny":28,"refTime":"2025-04-02T09:00:00:Z","depth":0,"parameterNumber":3,"parameterNumberName":"V-component_of_WINDS"},"data":[0,0,0,0,0,0,0,0,0,0,0,0,0,0,0,0,0,0,0,0,0,0,0,0,0,0,0,0,0,0,0,0,0,0,0,0,0,0,0,0,0,0,0,0,0,0,0,0,0,0,0,0,0,0,0,0,0,0,5.3831,5.3832,0,5.3959,5.3961,5.3962,5.3953,5.3951,5.3949,5.3947,5.408,5.4085,5.409,0,0,0,0,0,0,0,0,0,0,0,0,0,5.3581,5.3585,5.3831,5.3833,5.3834,5.3959,5.3961,5.3963,5.3953,5.3951,5.3949,5.3947,5.4078,5.4084,5.4091,0,0,0,0,0,0,0,0,0,0,0,0,0,5.3697,5.3587,5.3831,5.3845,5.3847,5.3959,5.3961,5.3963,5.3954,5.3951,5.3948,5.3945,5.4076,5.4084,5.4092,5.4198,0,0,5.4116,5.4119,0,0,0,0,0,0,0,0,5.3691,5.3707,5.3841,5.3844,5.3847,5.3937,5.3921,5.4042,5.3955,5.3913,5.3947,5.3944,5.4035,5.4046,5.4076,5.4205,5.421,5.4117,5.4122,5.4125,5.4127,0,0,0,0,0,0,0,5.3683,5.3701,5.3882,5.3843,5.3847,5.3845,5.3859,5.3944,5.3989,5.3917,5.3916,5.3932,5.4036,5.4069,5.4079,5.4212,5.4117,5.4124,5.4129,5.4132,5.4438,5.4441,0,0,0,0,0,0,5.3671,5.3694,5.3878,5.3886,5.376,5.3852,5.3867,5.3911,5.3988,5.3997,5.3934,5.3931,5.4057,5.407,5.4084,5.4217,5.4125,5.4132,5.4137,5.4435,5.4439,5.4442,0,0,0,0,0,0,5.3666,5.3688,5.3873,5.379,5.3813,5.386,5.3909,5.3915,5.3948,5.4001,5.4009,5.3959,5.4055,5.4073,5.4171,5.4221,5.4136,5.4143,5.4431,5.4436,5.4441,5.4481,0,0,0,0,0,0,5.3659,5.3686,5.3726,5.3791,5.3818,5.3956,5.3912,5.392,5.3962,5.3959,5.4027,5.4035,5.4054,5.4159,5.4179,5.423,5.4149,5.4427,5.4433,5.4439,5.4475,5.4486,5.4496,0,0,0,0,0,5.365,5.3731,5.3728,5.375,5.3869,5.3959,5.3975,5.3994,5.3966,5.4007,5.4042,5.4033,5.4212,5.4169,5.4191,5.4246,5.4423,5.4431,5.4439,5.447,5.4484,5.4496,0,0,0,0,0,0,5.367,5.374,5.3737,5.3842,5.3895,5.3957,5.401,5.4008,5.407,5.4065,5.4087,5.4103,5.4202,5.4233,5.4184,5.4355,5.4314,5.4327,5.4331,5.4344,5.4355,5.4346,5.4156,0,0,0,0,0,5.3687,5.3754,5.3811,5.3899,5.3925,5.3963,5.4003,5.4014,5.407,5.4092,5.4134,5.4189,5.4258,5.4303,5.4369,5.448,5.4496,5.4528,5.4539,5.4547,5.4558,5.4623,5.4639,5.4467,5.4467,5.4467,0,0,5.3722,5.3769,5.3809,5.3904,5.3946,5.4016,5.3982,5.4057,5.411,5.4104,5.4199,5.4232,5.4295,5.4401,5.4449,5.443,5.4609,5.4557,5.4563,5.457,5.4632,5.4648,5.4663,5.4472,5.4472,5.4471,0,0,5.3823,5.3864,5.3942,5.3986,5.4051,5.4076,5.4095,5.4159,5.418,5.4277,5.4275,5.4338,5.4456,5.4502,5.454,5.4662,5.4657,5.4683,5.4738,5.4801,5.4814,5.4826,5.4872,5.4888,5.4693,5.4693,5.4693,0,5.3859,5.3964,5.3983,5.406,5.4102,5.4101,5.4182,5.4223,5.4306,5.4337,5.4314,5.4464,5.4506,5.4624,5.4654,5.4684,5.4709,5.4675,5.481,5.4823,5.4835,5.4879,5.4896,5.4696,5.4696,5.4695,5.4695,0,5.4006,5.4079,5.4135,5.4216,5.4265,5.4343,5.4376,5.4424,5.4431,5.4459,5.4559,5.461,5.4688,5.4716,5.4723,5.4837,5.4823,5.4805,5.4765,5.4853,5.4895,5.4912,5.47,5.4699,5.4698,5.4698,0,0,5.4122,5.4215,5.4235,5.4274,5.4346,5.4404,5.4483,5.4559,5.4601,5.4659,5.4728,5.4829,5.4814,5.4858,5.4871,5.4925,5.5022,5.4901,5.4903,5.4924,5.5153,5.5167,5.5186,5.5019,5.5022,5.5025,5.5148,0,5.4232,5.4372,5.4393,5.4518,5.4587,5.4588,5.4657,5.471,5.4739,5.4803,5.4835,5.4908,5.4881,5.4908,5.4962,5.4998,5.5068,5.499,5.5085,5.5088,5.5071,5.5208,5.5222,5.5336,5.5164,5.5167,5.5169,0,5.4378,5.4442,5.4573,5.4639,5.4669,5.4731,5.4805,5.4865,5.4926,5.4943,5.4994,5.5001,5.5086,5.5041,5.5159,5.5105,5.5146,5.517,5.5175,5.5186,5.5135,5.5224,5.5373,5.5391,5.5195,5.5193,5.5191,0,5.4453,5.4571,5.4666,5.4698,5.4777,5.4821,5.4856,5.4914,5.496,5.5024,5.5055,5.5128,5.5168,5.5226,5.5253,5.5218,5.5371,5.5328,5.539,5.5389,5.5423,5.542,5.5582,5.5445,5.5445,5.5445,5.5445,0,5.4575,5.4656,5.4701,5.4759,5.4851,5.4875,5.4965,5.4999,5.5052,5.5118,5.5123,5.5185,5.5217,5.5284,5.5306,5.5403,5.542,5.5438,5.5443,5.5439,5.5437,5.5467,5.546,5.5449,5.5448,5.5448,5.5447,0,5.4674,5.4707,5.4811,5.4878,5.4896,5.4961,5.5019,5.5077,5.5106,5.519,5.5211,5.5258,5.5338,5.5371,5.5469,5.5484,5.5595,5.5593,5.5575,5.5577,5.5638,5.5633,5.5826,5.5854,5.5696,5.5698,5.5699,0,5.475,5.4813,5.4887,5.4932,5.4968,5.504,5.5087,5.5114,5.5163,5.5239,5.5289,5.5369,5.5435,5.5563,5.5606,5.5682,5.5684,5.5746,5.5695,5.569,5.5688,5.5685,5.5692,5.5756,5.5757,5.5759,5.576,0,5.4883,5.4897,5.4964,5.5039,5.5095,5.5155,5.5213,5.525,5.5286,5.5342,5.5424,5.5475,5.5576,5.5657,5.5736,5.5773,5.5774,5.5776,5.5794,5.5791,5.5779,5.5789,5.5603,5.5771,5.577,5.5769,5.5769,5.5768,5.4975,5.5031,5.5093,5.5169,5.5216,5.5271,5.533,5.5367,5.5436,5.5521,5.5533,5.5622,5.5684,5.579,5.5831,5.5902,5.5886,5.5913,5.592,5.5927,5.5932,5.5766,5.5916,5.5916,5.5916,5.5916,5.5915,0,5.511,5.515,5.522,5.5302,5.5363,5.5357,5.5422,5.5474,5.5552,5.561,5.5675,5.5771,5.585,5.59,5.5981,5.6028,5.6031,5.6048,5.6046,5.6056,5.594,5.5917,5.6045,5.6045,5.6045,5.6045,5.6045,5.6045,5.5187,5.5284,5.5306,5.5427,5.5467,5.5554,5.5593,5.5644,5.5691,5.5799,5.5864,5.5896,5.5952,5.6037,5.611,5.6123,5.6153,5.6173,5.6185,5.6077,5.6063,5.605,5.6029,5.6178,5.6178,5.6294,5.6295,5.6296]}]]